Niagara Falls, NY

3:42 AM EDT on June 24, 2017 (GMT -0400)
Niagara Falls International

Weather History for KIAG - January, 2014

Change the Weather History Date:

Tuesday, January 7, 2014

  Actual Average Record
Temperature  
Mean Temperature 2 °F -  
Max Temperature 6 °F 30 °F 60 °F (2008)
Min Temperature -2 °F 19 °F -2 °F (2014)
Degree Days  
Heating Degree Days 63    
Moisture  
Dew Point -5 °F    
Average Humidity 70    
Maximum Humidity 87    
Minimum Humidity 50    
Precipitation  
Precipitation 0.02 in - - ()
Snow  
Snow 0.00 in - - ()
Snow Depth 1.00 in    
Sea Level Pressure  
Sea Level Pressure 30.14 in    
Wind  
Wind Speed 29 mph (WSW)    
Max Wind Speed 37 mph    
Max Gust Speed 48 mph    
Visibility 6 miles    
Events Snow    
Averages and records for this station are not official NWS values.
T = Trace of Precipitation, MM = Missing Value Source: NWS Daily Summary

Daily Weather History Graph

Daily Weather History Graph

Search for Another Location

Airport or City:

Trip Planner

Search our weather history database for the weather conditions in past years. The results will help you decide how hot, cold, wet, or windy it might be!

Date:

Astronomy

Jan. 07, 2014 Rise Set
Actual Time 7:47 AM EST 4:57 PM EST
Civil Twilight 7:15 AM EST 5:29 PM EST
Nautical Twilight 6:39 AM EST 6:04 PM EST
Astronomical Twilight 6:05 AM EST 6:39 PM EST
Moon 11:23 AM EST (1/7) No Moon Set
Length of Visible Light 10h 14m
Length of Day
9h 10m
Waxing Crescent, 45% of the Moon is Illuminated
Jan 7
Waxing Crescent
Jan 7
First Quarter
Jan 15
Full
Jan 24
Last Quarter
Jan 30
New

Hourly Weather History & Observations

Time (EST) Temp. Windchill Dew Point Humidity Pressure Visibility Wind Dir Wind Speed Gust Speed Precip Events Conditions
12:53 AM -0.0 °F -25.9 °F -11.0 °F 60% 29.96 in 9.0 mi WSW 29.9 mph 41.4 mph 0.00 in   Overcast
1:53 AM -0.9 °F -24.5 °F -11.0 °F 62% 29.99 in 7.0 mi WSW 23.0 mph 40.3 mph 0.00 in Snow Light Snow
2:53 AM -2.0 °F -30.4 °F -15.0 °F 54% 30.03 in 10.0 mi WSW 35.7 mph 46.0 mph 0.00 in   Mostly Cloudy
3:53 AM -2.9 °F -29.0 °F -15.0 °F 56% 30.06 in 10.0 mi WSW 27.6 mph 41.4 mph N/A   Clear
4:53 AM -2.9 °F -27.6 °F -15.0 °F 56% 30.06 in 10.0 mi WSW 24.2 mph 38.0 mph N/A   Clear
5:53 AM -2.9 °F -29.0 °F -14.1 °F 59% 30.07 in 10.0 mi West 27.6 mph 36.8 mph N/A   Clear
6:53 AM -2.0 °F -27.3 °F -16.1 °F 51% 30.09 in 10.0 mi West 26.5 mph 41.4 mph N/A   Clear
7:07 AM -2.2 °F -29.2 °F -16.6 °F 50% 30.00 in 10.0 mi West 31.1 mph 41.4 mph N/A   Partly Cloudy
7:53 AM -2.0 °F -28.2 °F -15.0 °F 54% 30.12 in 10.0 mi WSW 28.8 mph 41.4 mph N/A   Scattered Clouds
8:53 AM -0.9 °F -25.5 °F -13.0 °F 57% 30.14 in 10.0 mi WSW 25.3 mph 35.7 mph N/A   Partly Cloudy
9:53 AM 1.0 °F -22.8 °F -11.0 °F 57% 30.16 in 10.0 mi West 25.3 mph 40.3 mph N/A   Scattered Clouds
10:53 AM 1.9 °F -25.2 °F -11.0 °F 55% 30.16 in 10.0 mi West 36.8 mph 43.7 mph N/A   Scattered Clouds
11:53 AM 3.0 °F -22.4 °F -11.0 °F 52% 30.14 in 10.0 mi WSW 32.2 mph 47.2 mph N/A   Scattered Clouds
12:53 PM 3.9 °F -21.9 °F -9.0 °F 55% 30.13 in 10.0 mi WSW 34.5 mph 48.3 mph N/A   Scattered Clouds
1:53 PM 5.0 °F -20.4 °F -9.0 °F 52% 30.14 in 8.0 mi WSW 34.5 mph 48.3 mph N/A   Mostly Cloudy
2:53 PM 5.0 °F -19.4 °F -5.1 °F 63% 30.16 in 7.0 mi WSW 31.1 mph 42.6 mph N/A   Scattered Clouds
3:04 PM 5.0 °F -19.4 °F -5.8 °F 61% 30.08 in 7.0 mi WSW 31.1 mph 46.0 mph 0.00 in Snow Light Snow
3:11 PM 5.0 °F -19.0 °F -2.2 °F 72% 30.08 in 0.8 mi WSW 29.9 mph 44.9 mph 0.00 in Snow Light Snow
3:22 PM 5.0 °F -17.5 °F 1.4 °F 85% 30.06 in 0.2 mi SW 25.3 mph 34.5 mph 0.00 in Snow Heavy Snow
3:35 PM 5.0 °F -19.4 °F 1.4 °F 85% 30.07 in 0.8 mi WSW 31.1 mph 42.6 mph 0.00 in Snow Light Snow
3:44 PM 5.0 °F -18.7 °F 1.4 °F 85% 30.07 in 1.0 mi WSW 28.8 mph 42.6 mph 0.00 in Snow Light Snow
3:53 PM 6.1 °F -15.7 °F 1.0 °F 80% 30.17 in 1.0 mi WSW 24.2 mph 43.7 mph 0.00 in Snow Light Snow
4:11 PM 6.8 °F -16.2 °F 1.4 °F 79% 30.09 in 0.8 mi WSW 28.8 mph 42.6 mph 0.00 in Snow Light Snow
4:31 PM 6.8 °F -16.6 °F 1.4 °F 79% 30.09 in 0.5 mi SW 29.9 mph 38.0 mph 0.00 in Snow Light Snow
4:42 PM 6.8 °F -14.7 °F 1.4 °F 79% 30.10 in 0.2 mi SW 24.2 mph 38.0 mph 0.00 in Snow Light Snow
4:53 PM 5.0 °F -19.4 °F 1.9 °F 87% 30.20 in 0.2 mi WSW 31.1 mph 39.1 mph 0.00 in Snow Light Snow
5:16 PM 5.0 °F -20.1 °F 1.4 °F 85% 30.12 in 0.8 mi WSW 33.4 mph 41.4 mph 0.00 in Snow Light Snow
5:44 PM 6.8 °F -16.9 °F 1.4 °F 79% 30.12 in 1.0 mi WSW 31.1 mph 41.4 mph 0.00 in Snow Light Snow
5:53 PM 6.1 °F -16.8 °F 3.0 °F 87% 30.22 in 1.0 mi WSW 27.6 mph 38.0 mph 0.00 in Snow Light Snow
6:12 PM 6.8 °F -17.3 °F 1.4 °F 79% 30.14 in 1.8 mi WSW 32.2 mph 41.4 mph 0.00 in Snow Light Snow
6:27 PM 6.8 °F -16.2 °F 1.4 °F 79% 30.14 in 2.5 mi WSW 28.8 mph 40.3 mph 0.00 in Snow Light Snow
6:38 PM 6.8 °F -16.2 °F 1.4 °F 79% 30.15 in 2.0 mi WSW 28.8 mph 38.0 mph 0.00 in Snow Light Snow
6:53 PM 6.1 °F -14.8 °F 1.9 °F 83% 30.24 in 2.0 mi WSW 21.9 mph 35.7 mph N/A Snow Light Snow
7:19 PM 5.0 °F -17.1 °F 1.4 °F 85% 30.17 in 1.5 mi West 24.2 mph 32.2 mph 0.00 in Snow Light Snow
7:27 PM 5.0 °F -16.2 °F 1.4 °F 85% 30.18 in 3.0 mi WSW 21.9 mph 32.2 mph 0.00 in Snow Light Snow
7:48 PM 5.0 °F -19.0 °F -0.4 °F 78% 30.18 in 5.0 mi WSW 29.9 mph 34.5 mph 0.00 in Snow Light Snow
7:53 PM 5.0 °F -19.7 °F -0.9 °F 76% 30.27 in 5.0 mi WSW 32.2 mph 39.1 mph 0.00 in Snow Light Snow
8:13 PM 5.0 °F -18.3 °F -0.4 °F 78% 30.19 in 5.0 mi WSW 27.6 mph 36.8 mph 0.00 in Snow Light Snow
8:30 PM 5.0 °F -18.3 °F -2.2 °F 72% 30.20 in 8.0 mi West 27.6 mph 33.4 mph 0.00 in   Scattered Clouds
8:53 PM 5.0 °F -13.6 °F -2.0 °F 73% 30.31 in 10.0 mi West 16.1 mph 24.2 mph 0.00 in   Scattered Clouds
9:53 PM 5.0 °F -17.1 °F -5.1 °F 63% 30.33 in 10.0 mi West 24.2 mph 33.4 mph N/A   Mostly Cloudy
10:53 PM 5.0 °F -17.5 °F -5.1 °F 63% 30.34 in 10.0 mi West 25.3 mph 33.4 mph N/A   Overcast
11:53 PM 6.1 °F -14.3 °F -4.0 °F 63% 30.35 in 10.0 mi West 20.7 mph 29.9 mph N/A   Overcast